SCP
-1 -0 0 -0 0 0 0 0 -0 -0 -0 -0 -0 0 -0 -0 -0 0 0 0 0 0 0 0 0 0 0 0 0 0 0 0 0 0 -0 -0 -0 -0 -0 -0 -0 -0 -0 0 0 0 0 -0 0
-0 -0 -0 0 0 0 -0 -0 -0 -0 -0 0 0 0 -0 -0 -0 0 0 0 0 0 -0 -0 0 -0 -0 0 0 0 0 0 0 0 -0 -0 -0 -0 -0 -0 -0 -0 0 0 0 0 0 0 0
-0 -0 -0 0 0 -0 -0 -0 -0 -0 -0 0 0 -0 -0 -0 -0 0 0 0 0 -0 -0 0 -0 -0 0 -0 0 0 0 0 0 0 -0 -0 0 0 -0 -0 0 0 0 -0 0 0 -0 0 0
0 0 0 0 -0 -0 -0 -0 -0 0 -0 0 -0 -0 -0 -0 -0 -0 0 0 0 0 0 0 0 0 0 0 0 0 0 0 -0 0 0 0 0 0 -0 -0 -0 0 -0 0 0 -0 -0 -0 0
0 0 0 -0 -0 -0 -0 -0 0 -0 -0 -0 -0 -0 -0 -0 -0 0 -0 0 0 0 0 0 0 0 0 0 0 0 0 0 0 0 0 0 0 -0 -0 0 -0 -0 -0 -0 -0 -0 -0 -0 0
0 0 -0 -0 -0 -0 -0 0 0 -0 -0 -0 -0 -0 -0 0 -0 0 -0 -0 -0 0 0 0 0 0 0 0 0 0 0 0 0 0 0 0 0 -0 -0 -0 0 -0 -0 0 -0 -0 -0 -0 -0
0 0 -0 -0 -0 -0 -0 -0 0 -0 -0 -0 -0 -0 -0 -0 -0 0 -0 -0 -0 -0 0 0 0 0 0 0 0 -0 0 0 0 0 0 0 0 0 0 0 -0 -0 -0 -0 -0 -0 -0 -0 -0
0 0 -0 -0 -0 -0 -0 -0 -0 -0 -0 -0 -0 -0 -0 -0 0 0 0 -0 -0 0 0 0 0 0 0 0 -0 -0 0 0 0 0 0 0 0 0 0 0 0 0 0 0 0 0 -0 -0 -0
0 0 0 -0 -0 -0 -0 -0 -0 -0 -0 0 0 -0 -0 -0 0 0 0 -0 0 -0 0 0 0 0 -0 -0 -0 -0 -0 -0 0 0 0 0 0 -0 0 0 0 0 0 0 0 0 -0 -0 -0
0 0 0 0 -0 -0 -0 -0 -0 -0 -0 -0 0 -0 -0 -0 -0 -0 0 -0 0 0 -0 -0 0 0 -0 -0 0 0 -0 -0 0 0 0 0 0 -0 -0 0 0 0 0 0 0 0 0 0 0
-0 -0 0 -0 0 -0 -0 -0 -0 -0 -0 -0 -0 -0 -0 -0 -0 -0 0 -0 -0 -0 -0 -0 -0 -0 0 0 0 -0 -0 0 0 0 -0 0 -0 -0 0 -0 0 0 0 0 0 0 0 0 0
-0 -0 0 -0 0 -0 -0 -0 -0 -0 -0 -0 -0 -0 -0 -0 -0 -0 0 0 -0 -0 -0 0 0 0 0 -0 -0 -0 -0 -0 -0 -0 0 0 -0 -0 -0 -0 -0 -0 -0 -0 -0 -0 -0 -0 -0
-0 -0 0 0 0 -0 -0 -0 -0 -0 -0 -0 -0 -0 -0 -0 -0 -0 -0 -0 -0 -0 -0 -0 -0 -0 0 -0 -0 0 -0 -0 0 -0 -0 0 -0 -0 -0 -0 -0 -0 -0 0 -0 -0 -0 0 -0
-0 -0 0 0 0 0 -0 -0 -0 -0 -0 -0 -0 -0 -0 -0 -0 -0 -0 -0 -0 -0 -0 -0 -0 -0 -0 0 0 -0 -0 -0 0 0 -0 0 0 -0 -0 -0 -0 -0 -0 -0 -0 -0 -0 -0 -0
0 -0 -0 0 0 0 -0 -0 -0 -0 -0 -0 -0 -0 -0 -0 -0 -0 -0 -0 -0 -0 -0 -0 -0 -0 -0 -0 0 0 -0 -0 0 0 -0 0 -0 0 0 0 0 0 -0 0 0 0 -0 -0 0
-0 -0 -0 0 0 0 -0 -0 -0 -0 -0 -0 0 0 0 -0 -0 -0 -0 -0 -0 -0 -0 -0 -0 -0 -0 -0 -0 0 0 -0 -0 -0 -0 0 0 0 0 0 0 0 -0 -0 0 0 -0 0 0
-0 0 -0 0 0 0 -0 -0 -0 -0 -0 -0 0 0 0 -0 -0 -0 -0 -0 -0 -0 -0 -0 -0 -0 -0 -0 -0 -0 0 0 0 -0 0 0 0 0 0 0 -0 0 0 0 0 -0 0 0 0
-0 -0 -0 0 0 0 0 0 0 -0 -0 -0 -0 0 0 0 0 -0 -0 -0 -0 -0 -0 -0 -0 0 -0 -0 0 0 -0 0 0 0 -0 -0 -0 0 -0 0 0 0 0 0 0 0 0 0 0
0 -0 0 0 0 0 0 0 0 -0 -0 -0 -0 -0 0 0 -0 -0 -0 -0 -0 -0 -0 -0 -0 -0 0 -0 -0 0 0 0 0 0 0 0 -0 -0 0 -0 0 0 0 0 0 0 0 0 0
0 -0 -0 0 0 0 0 -0 0 -0 0 0 -0 -0 -0 -0 0 -0 -0 -0 -0 -0 -0 -0 -0 -0 -0 -0 0 -0 -0 0 -0 -0 0 0 0 0 0 0 0 0 0 0 0 0 0 0 0
-0 -0 -0 -0 0 0 0 -0 0 0 -0 0 -0 0 -0 -0 -0 -0 -0 -0 -0 -0 -0 -1 -0 -0 -0 0 0 0 -0 -0 0 0 0 0 0 0 0 0 0 0 0 0 0 0 0 0 0
-0 -0 0 -0 0 -0 0 -0 0 0 0 -0 -0 -0 -0 -0 -0 -0 -0 -0 -0 -0 -0 -0 -1 -0 -0 -0 -0 0 0 -0 0 0 0 0 0 -0 0 -0 -0 0 -0 0 0 0 0 0 0
-0 -0 -0 0 0 0 0 -0 0 0 0 0 -0 -0 -0 -0 -0 -0 -0 -0 -0 -0 -0 -0 -0 -0 -0 -0 0 -0 -0 -0 -0 -0 -0 -0 -0 -0 -0 0 0 0 0 0 0 0 0 0 0
0 0 0 0 0 0 0 0 -0 0 -0 0 -0 -0 -0 -0 -0 -0 -0 -0 -0 -0 -0 -0 -0 -0 -0 0 -0 -0 -0 -0 -0 -0 -0 -0 -0 -0 -0 0 0 0 0 0 0 0 0 0 0
0 0 0 0 0 -0 0 0 0 0 0 0 0 -0 0 0 0 0 -0 -0 -0 -0 -0 0 -0 0 0 0 -0 -0 -0 -0 -1 -0 -0 -0 0 0 0 0 0 0 0 0 0 0 0 0 0
0 0 0 0 0 0 -0 0 0 0 0 0 0 0 0 0 0 -0 -0 -0 -0 -1 -1 -0 -0 -0 0 0 0 -0 -0 -0 -0 -0 -0 -0 0 0 1 1 0 0 0 0 0 0 0 0 0
0 0 0 0 0 0 0 0 0 0 0 0 0 0 0 0 0 -0 -0 -0 -0 -0 -1 -1 -0 -0 0 0 0 0 0 -0 -0 -0 0 -0 0 0 0 0 0 0 0 0 0 0 0 0 0
0 0 0 0 0 0 0 0 0 0 0 0 0 0 0 0 0 0 -0 -0 -0 -0 -0 -1 -0 -0 0 0 0 -0 -0 -0 -0 0 0 -0 0 0 1 1 1 1 1 0 0 0 0 0 0
0 0 0 0 0 0 0 0 0 0 0 0 0 -0 0 0 0 0 -0 -0 -0 -0 -0 -1 -0 -0 -0 -0 -0 -0 -0 -0 -0 -0 -0 0 0 1 1 1 1 1 1 1 2 0 0 0 0
0 0 0 0 0 0 0 0 0 0 0 0 0 0 0 0 0 0 0 0 -0 -0 -0 -0 -0 -0 -0 -0 -0 -0 -0 -0 -1 -0 0 1 1 1 1 2 1 2 1 1 1 1 0 0 0
Wind_Speed_500mb
19 20 27 19 11 6 11 19 26 24 25 29 20 27 20 14 10 24 38 39 45 44 48 47 50 48 46 46 46 45 46 45 42 38 32 29 26 24 21 22 21 20 20 19 21 23 24 23 21
26 22 25 25 5 9 16 27 26 25 35 30 22 12 31 37 56 53 49 46 45 44 37 37 41 39 40 42 42 40 41 41 37 32 28 25 21 18 18 18 18 17 18 20 21 22 22 21 20
25 24 33 14 20 1 20 17 31 30 16 16 15 17 25 49 53 45 49 48 43 40 37 34 38 37 37 40 39 38 39 38 33 28 24 19 15 14 16 15 15 18 18 19 20 20 20 19 19
21 30 31 14 22 24 28 27 27 22 21 17 39 29 55 44 40 50 48 43 39 34 30 35 33 35 36 36 37 35 36 35 30 23 19 17 14 13 12 13 14 15 15 17 18 19 17 15 16
24 31 17 17 19 21 24 24 22 22 24 24 48 44 46 32 45 49 44 39 35 32 29 31 32 34 34 33 34 34 32 29 24 20 20 16 13 11 10 10 12 11 12 16 18 18 16 13 15
35 26 8 20 20 17 21 12 11 30 22 19 44 46 34 39 45 42 38 37 37 31 31 30 34 32 31 33 35 34 30 27 24 22 16 12 9 8 8 10 10 10 12 14 15 16 15 12 12
34 25 17 26 17 19 19 13 14 24 25 33 43 35 37 45 42 42 39 39 40 37 32 28 28 33 33 34 35 31 27 25 22 16 12 9 5 4 7 10 12 12 12 12 12 12 13 13 12
41 25 18 19 26 24 20 11 21 23 26 36 34 22 45 49 46 43 40 39 36 33 33 33 27 27 26 31 34 27 20 21 16 12 11 8 2 8 11 12 11 14 12 11 11 9 11 12 14
28 18 14 15 16 27 23 24 16 20 32 23 11 36 48 50 48 45 42 39 38 32 29 29 29 27 27 24 26 25 21 19 15 13 9 7 3 9 14 16 17 13 11 10 14 9 15 12 18
21 12 6 18 20 34 23 23 24 25 31 26 20 46 51 51 49 47 44 40 38 32 31 34 29 28 25 21 22 17 14 11 10 9 13 4 9 12 13 13 15 16 18 12 20 14 13 15 11
34 7 13 24 17 39 26 24 24 21 23 33 32 46 53 52 48 45 41 39 37 35 31 34 32 30 28 28 15 17 14 15 14 18 17 11 10 8 12 10 14 10 15 19 18 14 9 11 9
33 51 10 14 14 17 26 31 22 15 29 35 34 45 54 51 48 45 41 39 38 37 34 35 34 32 31 23 21 18 18 17 16 14 19 15 10 11 13 12 12 10 10 17 15 20 14 13 19
27 24 9 9 17 21 34 27 23 21 18 32 37 48 52 50 45 43 40 39 40 40 38 37 36 34 33 27 22 21 19 19 17 17 18 15 15 15 15 15 14 18 16 16 12 17 17 16 18
27 30 15 9 18 20 19 33 21 31 24 34 40 48 51 49 48 45 44 43 43 41 40 37 35 34 32 31 25 25 22 20 21 19 19 23 19 17 20 22 19 15 17 22 15 19 17 17 19
32 19 24 19 22 23 25 31 30 43 30 36 40 45 49 48 48 48 46 45 44 42 40 40 37 35 34 32 29 26 24 21 23 23 23 23 31 27 25 25 19 19 20 23 25 14 14 18 16
35 33 31 28 27 23 35 32 33 39 38 37 39 43 48 49 49 47 47 45 44 42 42 40 36 36 35 32 30 27 26 26 24 22 20 21 27 25 22 19 16 18 17 19 16 14 14 15 15
31 34 39 30 32 26 32 30 34 38 40 40 38 43 48 49 49 49 48 48 46 45 44 42 40 38 37 35 31 29 27 28 23 26 23 25 26 27 18 19 20 21 21 22 12 6 13 16 17
43 42 39 35 33 25 30 10 35 37 39 41 42 42 48 51 54 51 50 48 46 45 44 43 42 41 39 36 39 31 40 28 25 26 23 27 22 24 24 19 27 24 13 9 7 13 17 16 10
47 43 36 30 48 37 34 27 26 34 38 39 48 46 50 52 51 52 51 51 49 46 45 45 45 44 41 39 33 27 24 24 28 30 35 31 24 22 26 12 17 14 11 10 11 15 14 9 7
57 47 35 26 42 39 37 38 35 34 32 39 43 52 52 53 53 54 55 55 54 53 49 49 48 48 46 37 34 31 27 26 26 28 21 19 24 17 20 19 11 14 8 14 11 9 6 9 8
54 51 36 36 37 35 32 36 37 35 45 39 41 45 55 59 59 60 60 60 57 58 57 55 55 52 51 45 33 32 26 31 18 26 25 22 18 18 20 15 15 14 17 11 10 5 8 6 8
50 51 47 39 29 30 38 31 43 37 41 40 48 48 54 61 62 62 64 64 64 62 58 58 57 57 51 50 43 39 32 30 25 23 18 18 21 20 19 19 15 18 8 17 5 5 7 5 5
51 50 46 45 38 39 45 35 23 41 38 37 44 53 55 58 64 66 67 67 64 61 60 58 62 60 55 52 49 44 41 30 25 21 20 24 20 22 20 19 20 12 10 15 13 6 5 3 5
47 50 48 47 36 32 46 35 39 33 36 37 48 55 56 58 61 63 63 63 66 65 63 61 64 65 61 56 53 57 43 41 29 27 22 18 19 20 24 24 19 14 13 12 6 8 7 9 11
56 49 33 38 37 39 49 38 46 35 36 36 38 52 58 58 58 62 66 68 66 70 70 66 68 70 67 61 57 55 60 43 41 28 31 24 23 23 28 28 24 17 17 13 10 10 11 6 6
61 57 38 50 34 40 50 47 43 39 23 37 40 37 53 57 61 66 69 70 70 71 75 74 72 74 71 64 62 59 54 50 44 43 33 29 28 27 32 33 25 22 16 13 14 10 7 11 8
59 56 56 54 49 39 41 39 43 14 36 38 32 44 36 55 61 70 71 72 72 74 79 81 76 77 78 68 67 66 64 60 50 46 46 38 35 28 33 31 30 24 23 18 15 10 15 16 16
64 47 53 46 55 53 48 45 34 38 33 35 39 39 36 41 54 67 72 74 74 74 77 79 81 78 79 74 71 71 72 69 64 58 54 46 39 43 39 37 32 28 26 20 11 13 18 21 20
41 54 46 50 48 42 40 37 42 37 37 40 44 57 45 48 53 58 68 73 78 76 75 79 79 81 78 75 75 73 74 66 69 68 64 57 52 49 41 44 38 35 30 16 13 16 24 22 24
54 58 64 35 55 40 44 38 29 33 29 25 37 43 54 44 49 55 59 68 74 81 78 78 77 75 77 76 78 80 79 76 72 72 68 65 62 58 53 51 48 46 43 40 39 34 25 27 28
Wind_Direction_500mb
198 168 167 181 187 238 86 89 110 92 106 112 114 107 115 128 137 104 130 127 128 127 128 129 130 132 135 131 129 128 130 128 130 129 124 115 103 92 90 84 81 71 62 55 45 35 34 33 38
190 181 215 269 273 26 112 80 119 109 93 107 108 88 74 77 100 121 127 133 132 130 130 130 131 131 133 136 134 129 130 136 131 130 127 117 106 94 88 79 70 59 49 45 38 29 24 27 32
193 211 251 241 101 165 98 124 95 108 122 99 94 44 70 111 118 128 136 135 134 138 142 147 134 132 132 134 133 133 135 135 134 131 129 128 112 94 82 71 58 44 43 39 27 25 23 19 30
200 232 246 267 53 62 97 99 119 119 79 63 94 88 109 112 120 132 136 138 138 138 141 147 139 139 137 135 135 135 136 138 138 138 137 129 120 94 85 67 44 35 38 29 20 18 22 23 27
244 262 247 71 78 85 97 118 142 94 86 100 110 114 113 111 126 133 141 140 140 141 146 148 148 145 144 139 139 142 142 144 145 141 134 126 109 101 77 47 25 26 24 15 15 17 20 32 24
239 251 179 93 93 101 103 121 99 103 101 115 112 129 117 131 136 140 141 144 146 137 139 144 146 146 147 149 146 145 146 146 143 142 140 130 107 81 46 17 6 18 8 11 16 16 27 37 29
253 283 88 92 115 122 114 153 141 111 128 128 138 119 133 144 143 142 143 141 139 144 144 144 145 150 156 159 156 146 146 147 150 150 150 147 127 64 23 4 6 8 4 7 13 14 16 35 41
271 260 190 156 129 114 126 144 99 142 103 130 139 140 153 149 148 146 146 146 145 150 151 150 151 148 150 163 170 165 158 166 171 167 168 161 91 359 20 340 358 345 336 354 359 10 23 27 30
251 300 271 130 139 122 151 125 143 97 133 152 146 138 152 153 152 151 152 145 144 155 158 147 152 163 156 164 174 177 179 188 190 188 184 147 333 32 330 310 308 339 341 351 352 360 21 49 31
237 296 285 41 156 128 155 146 140 156 147 146 144 133 153 157 159 159 162 158 164 163 166 165 170 162 166 165 194 174 187 193 191 211 249 173 249 233 221 280 323 341 359 6 5 18 30 28 356
247 155 340 121 3 128 151 145 148 163 165 160 151 150 160 164 166 168 170 168 171 170 168 172 169 171 170 177 179 181 201 201 225 216 217 235 237 265 303 298 313 333 350 321 359 322 355 338 318
252 167 241 74 124 178 164 136 153 171 161 156 158 163 166 171 173 175 175 173 174 175 177 179 181 182 182 189 189 195 205 210 219 240 234 217 251 258 266 269 297 297 289 297 273 290 296 297 297
222 271 177 248 164 249 151 141 147 164 145 152 154 165 173 176 179 180 181 180 181 182 184 187 190 192 192 193 200 204 210 216 222 228 253 221 240 251 268 265 271 295 288 306 277 282 299 301 298
216 232 274 232 178 183 196 148 162 147 158 152 159 171 178 182 184 183 186 186 188 188 189 192 193 197 197 202 204 210 212 221 227 234 239 267 236 249 255 281 293 287 293 273 276 268 259 303 299
259 231 209 221 180 164 220 158 198 155 169 162 170 177 182 187 188 190 190 192 192 194 194 195 197 202 205 208 219 217 223 230 233 234 233 242 257 245 244 249 262 267 278 284 291 304 326 324 314
225 227 244 159 167 153 221 179 181 158 177 170 178 182 187 191 194 195 196 197 198 197 197 198 201 206 211 211 215 216 228 231 230 239 253 236 256 273 261 275 283 283 277 276 284 311 304 305 301
216 228 228 149 174 155 224 180 168 166 186 181 183 186 192 193 198 199 200 200 200 200 201 202 201 204 208 216 217 223 227 233 241 248 240 255 255 263 259 262 265 269 263 267 287 307 305 302 305
216 220 218 171 173 181 212 167 150 171 191 187 188 189 194 198 202 202 202 202 201 203 203 204 206 205 208 214 218 219 223 226 240 248 239 256 247 242 248 249 257 265 284 290 250 264 293 291 303
231 211 231 209 163 194 196 228 159 177 201 198 190 195 197 204 204 205 204 203 202 203 204 205 203 210 203 213 217 219 231 228 234 238 244 238 263 256 253 256 258 279 259 238 305 294 296 317 289
241 242 222 209 160 193 202 206 184 181 200 209 204 196 207 206 208 205 205 204 205 203 204 203 205 205 210 215 206 216 224 229 240 240 228 231 246 249 244 235 256 244 261 276 275 290 282 292 285
231 244 234 218 165 181 229 217 205 191 189 209 218 213 206 212 207 203 206 207 206 206 204 205 207 209 210 203 213 220 218 231 228 233 257 255 233 229 242 235 209 240 233 272 295 292 282 289 292
225 233 251 231 132 238 209 245 195 202 204 196 213 216 213 208 212 208 207 209 209 209 208 207 210 210 213 210 208 215 217 222 228 229 226 213 216 208 219 213 214 228 193 219 271 284 196 281 305
229 225 233 247 230 221 202 227 212 204 201 197 207 213 217 212 211 212 209 211 213 211 211 210 212 213 206 216 206 216 215 218 216 215 217 206 217 198 201 201 214 225 185 234 212 250 207 253 285
230 237 233 234 249 238 231 204 238 172 211 193 201 205 213 214 210 212 215 213 213 213 212 211 211 215 215 209 221 204 218 212 212 213 213 207 206 208 199 208 208 215 194 226 241 224 227 199 208
224 227 228 230 220 239 227 207 238 222 193 210 212 207 202 209 211 208 211 212 211 210 210 209 209 217 218 215 212 217 206 215 213 209 215 206 210 214 224 204 211 220 209 204 226 248 202 224 199
216 219 223 223 227 228 236 230 214 219 229 197 206 228 200 197 208 210 209 209 208 208 207 207 208 214 220 214 216 218 217 213 215 220 211 216 211 214 225 236 208 200 211 212 234 228 238 251 243
213 222 225 235 229 235 229 222 240 241 216 230 252 248 219 192 205 211 209 208 207 205 205 206 207 212 221 214 219 222 225 216 215 215 228 213 212 212 212 219 201 205 201 206 230 217 247 241 247
239 215 222 230 238 236 227 237 221 203 223 245 232 245 235 226 204 212 210 208 206 206 206 205 207 212 219 216 220 221 226 228 216 216 217 213 216 206 223 214 201 199 195 201 227 242 274 249 244
218 236 222 231 237 245 245 235 224 198 206 222 227 233 223 210 203 211 211 210 207 206 206 206 207 210 216 215 218 220 224 220 227 218 224 223 211 221 209 224 202 212 193 191 302 262 229 252 263
232 226 232 227 222 244 257 250 218 212 184 226 222 223 210 216 215 202 212 210 208 207 207 207 207 210 213 213 219 226 228 226 225 227 221 229 227 228 221 224 211 211 204 226 261 270 265 253 250
Wind_Speed_850mb
19 20 27 19 11 6 11 19 26 24 25 29 20 27 20 14 10 24 38 39 45 44 48 47 50 48 46 46 46 45 46 45 42 38 32 29 26 24 21 22 21 20 20 19 21 23 24 23 21
26 22 25 25 5 9 16 27 26 25 35 30 22 12 31 37 56 53 49 46 45 44 37 37 41 39 40 42 42 40 41 41 37 32 28 25 21 18 18 18 18 17 18 20 21 22 22 21 20
25 24 33 14 20 1 20 17 31 30 16 16 15 17 25 49 53 45 49 48 43 40 37 34 38 37 37 40 39 38 39 38 33 28 24 19 15 14 16 15 15 18 18 19 20 20 20 19 19
21 30 31 14 22 24 28 27 27 22 21 17 39 29 55 44 40 50 48 43 39 34 30 35 33 35 36 36 37 35 36 35 30 23 19 17 14 13 12 13 14 15 15 17 18 19 17 15 16
24 31 17 17 19 21 24 24 22 22 24 24 48 44 46 32 45 49 44 39 35 32 29 31 32 34 34 33 34 34 32 29 24 20 20 16 13 11 10 10 12 11 12 16 18 18 16 13 15
35 26 8 20 20 17 21 12 11 30 22 19 44 46 34 39 45 42 38 37 37 31 31 30 34 32 31 33 35 34 30 27 24 22 16 12 9 8 8 10 10 10 12 14 15 16 15 12 12
34 25 17 26 17 19 19 13 14 24 25 33 43 35 37 45 42 42 39 39 40 37 32 28 28 33 33 34 35 31 27 25 22 16 12 9 5 4 7 10 12 12 12 12 12 12 13 13 12
41 25 18 19 26 24 20 11 21 23 26 36 34 22 45 49 46 43 40 39 36 33 33 33 27 27 26 31 34 27 20 21 16 12 11 8 2 8 11 12 11 14 12 11 11 9 11 12 14
28 18 14 15 16 27 23 24 16 20 32 23 11 36 48 50 48 45 42 39 38 32 29 29 29 27 27 24 26 25 21 19 15 13 9 7 3 9 14 16 17 13 11 10 14 9 15 12 18
21 12 6 18 20 34 23 23 24 25 31 26 20 46 51 51 49 47 44 40 38 32 31 34 29 28 25 21 22 17 14 11 10 9 13 4 9 12 13 13 15 16 18 12 20 14 13 15 11
34 7 13 24 17 39 26 24 24 21 23 33 32 46 53 52 48 45 41 39 37 35 31 34 32 30 28 28 15 17 14 15 14 18 17 11 10 8 12 10 14 10 15 19 18 14 9 11 9
33 51 10 14 14 17 26 31 22 15 29 35 34 45 54 51 48 45 41 39 38 37 34 35 34 32 31 23 21 18 18 17 16 14 19 15 10 11 13 12 12 10 10 17 15 20 14 13 19
27 24 9 9 17 21 34 27 23 21 18 32 37 48 52 50 45 43 40 39 40 40 38 37 36 34 33 27 22 21 19 19 17 17 18 15 15 15 15 15 14 18 16 16 12 17 17 16 18
27 30 15 9 18 20 19 33 21 31 24 34 40 48 51 49 48 45 44 43 43 41 40 37 35 34 32 31 25 25 22 20 21 19 19 23 19 17 20 22 19 15 17 22 15 19 17 17 19
32 19 24 19 22 23 25 31 30 43 30 36 40 45 49 48 48 48 46 45 44 42 40 40 37 35 34 32 29 26 24 21 23 23 23 23 31 27 25 25 19 19 20 23 25 14 14 18 16
35 33 31 28 27 23 35 32 33 39 38 37 39 43 48 49 49 47 47 45 44 42 42 40 36 36 35 32 30 27 26 26 24 22 20 21 27 25 22 19 16 18 17 19 16 14 14 15 15
31 34 39 30 32 26 32 30 34 38 40 40 38 43 48 49 49 49 48 48 46 45 44 42 40 38 37 35 31 29 27 28 23 26 23 25 26 27 18 19 20 21 21 22 12 6 13 16 17
43 42 39 35 33 25 30 10 35 37 39 41 42 42 48 51 54 51 50 48 46 45 44 43 42 41 39 36 39 31 40 28 25 26 23 27 22 24 24 19 27 24 13 9 7 13 17 16 10
47 43 36 30 48 37 34 27 26 34 38 39 48 46 50 52 51 52 51 51 49 46 45 45 45 44 41 39 33 27 24 24 28 30 35 31 24 22 26 12 17 14 11 10 11 15 14 9 7
57 47 35 26 42 39 37 38 35 34 32 39 43 52 52 53 53 54 55 55 54 53 49 49 48 48 46 37 34 31 27 26 26 28 21 19 24 17 20 19 11 14 8 14 11 9 6 9 8
54 51 36 36 37 35 32 36 37 35 45 39 41 45 55 59 59 60 60 60 57 58 57 55 55 52 51 45 33 32 26 31 18 26 25 22 18 18 20 15 15 14 17 11 10 5 8 6 8
50 51 47 39 29 30 38 31 43 37 41 40 48 48 54 61 62 62 64 64 64 62 58 58 57 57 51 50 43 39 32 30 25 23 18 18 21 20 19 19 15 18 8 17 5 5 7 5 5
51 50 46 45 38 39 45 35 23 41 38 37 44 53 55 58 64 66 67 67 64 61 60 58 62 60 55 52 49 44 41 30 25 21 20 24 20 22 20 19 20 12 10 15 13 6 5 3 5
47 50 48 47 36 32 46 35 39 33 36 37 48 55 56 58 61 63 63 63 66 65 63 61 64 65 61 56 53 57 43 41 29 27 22 18 19 20 24 24 19 14 13 12 6 8 7 9 11
56 49 33 38 37 39 49 38 46 35 36 36 38 52 58 58 58 62 66 68 66 70 70 66 68 70 67 61 57 55 60 43 41 28 31 24 23 23 28 28 24 17 17 13 10 10 11 6 6
61 57 38 50 34 40 50 47 43 39 23 37 40 37 53 57 61 66 69 70 70 71 75 74 72 74 71 64 62 59 54 50 44 43 33 29 28 27 32 33 25 22 16 13 14 10 7 11 8
59 56 56 54 49 39 41 39 43 14 36 38 32 44 36 55 61 70 71 72 72 74 79 81 76 77 78 68 67 66 64 60 50 46 46 38 35 28 33 31 30 24 23 18 15 10 15 16 16
64 47 53 46 55 53 48 45 34 38 33 35 39 39 36 41 54 67 72 74 74 74 77 79 81 78 79 74 71 71 72 69 64 58 54 46 39 43 39 37 32 28 26 20 11 13 18 21 20
41 54 46 50 48 42 40 37 42 37 37 40 44 57 45 48 53 58 68 73 78 76 75 79 79 81 78 75 75 73 74 66 69 68 64 57 52 49 41 44 38 35 30 16 13 16 24 22 24
54 58 64 35 55 40 44 38 29 33 29 25 37 43 54 44 49 55 59 68 74 81 78 78 77 75 77 76 78 80 79 76 72 72 68 65 62 58 53 51 48 46 43 40 39 34 25 27 28
Wind_Direction_850mb
198 168 167 181 187 238 86 89 110 92 106 112 114 107 115 128 137 104 130 127 128 127 128 129 130 132 135 131 129 128 130 128 130 129 124 115 103 92 90 84 81 71 62 55 45 35 34 33 38
190 181 215 269 273 26 112 80 119 109 93 107 108 88 74 77 100 121 127 133 132 130 130 130 131 131 133 136 134 129 130 136 131 130 127 117 106 94 88 79 70 59 49 45 38 29 24 27 32
193 211 251 241 101 165 98 124 95 108 122 99 94 44 70 111 118 128 136 135 134 138 142 147 134 132 132 134 133 133 135 135 134 131 129 128 112 94 82 71 58 44 43 39 27 25 23 19 30
200 232 246 267 53 62 97 99 119 119 79 63 94 88 109 112 120 132 136 138 138 138 141 147 139 139 137 135 135 135 136 138 138 138 137 129 120 94 85 67 44 35 38 29 20 18 22 23 27
244 262 247 71 78 85 97 118 142 94 86 100 110 114 113 111 126 133 141 140 140 141 146 148 148 145 144 139 139 142 142 144 145 141 134 126 109 101 77 47 25 26 24 15 15 17 20 32 24
239 251 179 93 93 101 103 121 99 103 101 115 112 129 117 131 136 140 141 144 146 137 139 144 146 146 147 149 146 145 146 146 143 142 140 130 107 81 46 17 6 18 8 11 16 16 27 37 29
253 283 88 92 115 122 114 153 141 111 128 128 138 119 133 144 143 142 143 141 139 144 144 144 145 150 156 159 156 146 146 147 150 150 150 147 127 64 23 4 6 8 4 7 13 14 16 35 41
271 260 190 156 129 114 126 144 99 142 103 130 139 140 153 149 148 146 146 146 145 150 151 150 151 148 150 163 170 165 158 166 171 167 168 161 91 359 20 340 358 345 336 354 359 10 23 27 30
251 300 271 130 139 122 151 125 143 97 133 152 146 138 152 153 152 151 152 145 144 155 158 147 152 163 156 164 174 177 179 188 190 188 184 147 333 32 330 310 308 339 341 351 352 360 21 49 31
237 296 285 41 156 128 155 146 140 156 147 146 144 133 153 157 159 159 162 158 164 163 166 165 170 162 166 165 194 174 187 193 191 211 249 173 249 233 221 280 323 341 359 6 5 18 30 28 356
247 155 340 121 3 128 151 145 148 163 165 160 151 150 160 164 166 168 170 168 171 170 168 172 169 171 170 177 179 181 201 201 225 216 217 235 237 265 303 298 313 333 350 321 359 322 355 338 318
252 167 241 74 124 178 164 136 153 171 161 156 158 163 166 171 173 175 175 173 174 175 177 179 181 182 182 189 189 195 205 210 219 240 234 217 251 258 266 269 297 297 289 297 273 290 296 297 297
222 271 177 248 164 249 151 141 147 164 145 152 154 165 173 176 179 180 181 180 181 182 184 187 190 192 192 193 200 204 210 216 222 228 253 221 240 251 268 265 271 295 288 306 277 282 299 301 298
216 232 274 232 178 183 196 148 162 147 158 152 159 171 178 182 184 183 186 186 188 188 189 192 193 197 197 202 204 210 212 221 227 234 239 267 236 249 255 281 293 287 293 273 276 268 259 303 299
259 231 209 221 180 164 220 158 198 155 169 162 170 177 182 187 188 190 190 192 192 194 194 195 197 202 205 208 219 217 223 230 233 234 233 242 257 245 244 249 262 267 278 284 291 304 326 324 314
225 227 244 159 167 153 221 179 181 158 177 170 178 182 187 191 194 195 196 197 198 197 197 198 201 206 211 211 215 216 228 231 230 239 253 236 256 273 261 275 283 283 277 276 284 311 304 305 301
216 228 228 149 174 155 224 180 168 166 186 181 183 186 192 193 198 199 200 200 200 200 201 202 201 204 208 216 217 223 227 233 241 248 240 255 255 263 259 262 265 269 263 267 287 307 305 302 305
216 220 218 171 173 181 212 167 150 171 191 187 188 189 194 198 202 202 202 202 201 203 203 204 206 205 208 214 218 219 223 226 240 248 239 256 247 242 248 249 257 265 284 290 250 264 293 291 303
231 211 231 209 163 194 196 228 159 177 201 198 190 195 197 204 204 205 204 203 202 203 204 205 203 210 203 213 217 219 231 228 234 238 244 238 263 256 253 256 258 279 259 238 305 294 296 317 289
241 242 222 209 160 193 202 206 184 181 200 209 204 196 207 206 208 205 205 204 205 203 204 203 205 205 210 215 206 216 224 229 240 240 228 231 246 249 244 235 256 244 261 276 275 290 282 292 285
231 244 234 218 165 181 229 217 205 191 189 209 218 213 206 212 207 203 206 207 206 206 204 205 207 209 210 203 213 220 218 231 228 233 257 255 233 229 242 235 209 240 233 272 295 292 282 289 292
225 233 251 231 132 238 209 245 195 202 204 196 213 216 213 208 212 208 207 209 209 209 208 207 210 210 213 210 208 215 217 222 228 229 226 213 216 208 219 213 214 228 193 219 271 284 196 281 305
229 225 233 247 230 221 202 227 212 204 201 197 207 213 217 212 211 212 209 211 213 211 211 210 212 213 206 216 206 216 215 218 216 215 217 206 217 198 201 201 214 225 185 234 212 250 207 253 285
230 237 233 234 249 238 231 204 238 172 211 193 201 205 213 214 210 212 215 213 213 213 212 211 211 215 215 209 221 204 218 212 212 213 213 207 206 208 199 208 208 215 194 226 241 224 227 199 208
224 227 228 230 220 239 227 207 238 222 193 210 212 207 202 209 211 208 211 212 211 210 210 209 209 217 218 215 212 217 206 215 213 209 215 206 210 214 224 204 211 220 209 204 226 248 202 224 199
216 219 223 223 227 228 236 230 214 219 229 197 206 228 200 197 208 210 209 209 208 208 207 207 208 214 220 214 216 218 217 213 215 220 211 216 211 214 225 236 208 200 211 212 234 228 238 251 243
213 222 225 235 229 235 229 222 240 241 216 230 252 248 219 192 205 211 209 208 207 205 205 206 207 212 221 214 219 222 225 216 215 215 228 213 212 212 212 219 201 205 201 206 230 217 247 241 247
239 215 222 230 238 236 227 237 221 203 223 245 232 245 235 226 204 212 210 208 206 206 206 205 207 212 219 216 220 221 226 228 216 216 217 213 216 206 223 214 201 199 195 201 227 242 274 249 244
218 236 222 231 237 245 245 235 224 198 206 222 227 233 223 210 203 211 211 210 207 206 206 206 207 210 216 215 218 220 224 220 227 218 224 223 211 221 209 224 202 212 193 191 302 262 229 252 263
232 226 232 227 222 244 257 250 218 212 184 226 222 223 210 216 215 202 212 210 208 207 207 207 207 210 213 213 219 226 228 226 225 227 221 229 227 228 221 224 211 211 204 226 261 270 265 253 250